Weather in Palmanova

Spain     39°31′38″N   2°32′21″E
temp.,
°C
wind,
m/s
gust,
m/s
humid.,
%
clouds,
%
prec.,
mm/h
press.,
hPa
HPBL,
m
2 july, sat
sat223:00+22ene45670 0.0 1019229
02:00+21ne45725 0.0 1018168
05:00+21ene127290 0.0 1018121
08:00+23ene576136 0.0 1017290
11:00+28e35425 0.0 1018509
14:00+29sse574618 0.0 1018775
17:00+29sse24486 0.0 1017477
20:00+26wsw22583 0.0 1017339
3 july, sun
sun323:00+24ssw226543 0.0 101953
02:00+24ne4466100 0.0 1017181
05:00+23ne1157100 0.0 101751
08:00+25se224820 0.0 1017105
11:00+28ssw1241100 0.0 1017386
14:00+28sw325352 0.0 1018493
17:00+30sse124894 0.0 1016387
20:00+28s11590 0.0 1015273
4 july, mon
mon423:00+25nnw5673100 0.0 1018213
02:00+25e566654 0.0 1017160
05:00+24ese34684 0.0 1017155
08:00+25e11663 0.0 1017119
11:00+29ssw225640 0.0 1017462
14:00+30sw32565 0.0 1017718
17:00+30sw215413 0.0 1016515
20:00+28w11635 0.0 1016254
5 july, tue
tue523:00+26se1173100 0.0 101711
02:00+25ese01735 0.0 101811
05:00+25nne22755 0.0 101825
08:00+26ene34645 0.0 1018144
11:00+30se45483 0.0 1018511
14:00+30s66550 0.0 1018624
17:00+29ssw44591 0.0 1018498
20:00+28sse35610 0.0 1017321
6 july, wed
wed623:00+26n227436 0.0 102027
02:00+25e336717 0.0 101857
05:00+25w116993 0.0 101813
08:00+26ne3464100 0.0 1017106
11:00+29sw6549100 0.0 1018455
14:00+31se334629 0.0 1017563
17:00+29s44582 0.0 1018470
20:00+28se34585 0.0 1017250